Location: Newark
(43.0000°N, 1.6781°W)
Time: 00:11:51
(UTC+00:00)

N. Korean satellite - Pass Details

Date: 08 December 2021
Orbit: 447 x 491 km, 97.3° (Epoch: 21 January)

Event Time Altitude Azimuth Distance (km) Brightness Sun altitude
Rises 04:30:40 0° 29° (NNE) 2,458 10.5 -31.1°
Reaches altitude 10° 04:33:15 10° 51° (NE) 1,579 9.7 -30.6°
Maximum altitude 04:35:31 17° 93° (E) 1,220 9.3 -30.2°
Drops below altitude 10° 04:37:47 10° 136° (SE) 1,573 9.7 -29.8°
Sets 04:40:20 0° 157° (SSE) 2,442 10.5 -29.3°
